Norfolk, NE

10:42 AM CDT on August 28, 2016 (GMT -0500)
Stefan Memorial

Weather History for KOFK - July, 2014

Change the Weather History Date:

Thursday, July 3, 2014

  Actual Average Record
Temperature  
Mean Temperature 65 °F 74 °F  
Max Temperature 79 °F 86 °F 111 °F (1936)
Min Temperature 50 °F 63 °F 45 °F (1908)
Degree Days  
Heating Degree Days 0 0  
Month to date heating degree days 3 0  
Since 1 June heating degree days 28 30  
Since 1 July heating degree days 3 0  
Cooling Degree Days 0 10  
Month to date cooling degree days 1 28  
Year to date cooling degree days 292 275  
Since 1 June cooling degree days 195 214  
Growing Degree Days 14 (Base 50)    
Moisture  
Dew Point 53 °F    
Average Humidity 69    
Maximum Humidity 93    
Minimum Humidity 45    
Precipitation  
Precipitation 0.00 in 0.12 in 3.18 in (1903)
Month to date precipitation 0.00 0.36  
Year to date precipitation 16.88 14.32  
Snow  
Snow 0.00 in 0.00 in - ()
Month to date snowfall 0.0 0.0  
Since 1 July snowfall 0.0 0.0  
Snow Depth 0.00 in    
Sea Level Pressure  
Sea Level Pressure 30.17 in    
Wind  
Wind Speed 8 mph (SSE)    
Max Wind Speed 17 mph    
Max Gust Speed 21 mph    
Visibility 10 miles    
Events      
T = Trace of Precipitation, MM = Missing Value Source: NWS Daily Summary

Daily Weather History Graph

Daily Weather History Graph

Search for Another Location

Airport or City:

Trip Planner

Search our weather history database for the weather conditions in past years. The results will help you decide how hot, cold, wet, or windy it might be!

Date:

Astronomy

Jul. 03, 2014 Rise Set
Actual Time 5:59 AM CDT 9:08 PM CDT
Civil Twilight 5:24 AM CDT 9:42 PM CDT
Nautical Twilight 4:41 AM CDT 10:26 PM CDT
Astronomical Twilight 3:48 AM CDT 11:18 PM CDT
Moon 12:05 PM CDT (7/3) No Moon Set
Length of Visible Light 16h 17m
Length of Day
15h 09m
Waxing Crescent, 33% of the Moon is Illuminated
Jul 3
Waxing Crescent
Jul 5
First Quarter
Jul 12
Full
Jul 18
Last Quarter
Jul 26
New

Hourly Weather History & Observations

Time (CDT) Temp. Dew Point Humidity Pressure Visibility Wind Dir Wind Speed Gust Speed Precip Events Conditions
12:56 AM 52.0 °F 48.0 °F 86% 30.17 in 10.0 mi Calm Calm - N/A   Clear
1:56 AM 55.9 °F 48.9 °F 77% 30.17 in 10.0 mi Calm Calm - N/A   Clear
2:56 AM 54.0 °F 48.9 °F 83% 30.18 in 10.0 mi Calm Calm - N/A   Clear
3:56 AM 53.1 °F 50.0 °F 89% 30.18 in 10.0 mi Calm Calm - N/A   Clear
4:56 AM 51.1 °F 48.9 °F 92% 30.19 in 10.0 mi Calm Calm - N/A   Clear
5:56 AM 50.0 °F 48.0 °F 93% 30.20 in 10.0 mi Calm Calm - N/A   Clear
6:56 AM 54.0 °F 50.0 °F 86% 30.21 in 10.0 mi Calm Calm - N/A   Clear
7:56 AM 59.0 °F 54.0 °F 83% 30.22 in 10.0 mi Calm Calm - N/A   Clear
8:56 AM 66.0 °F 53.1 °F 63% 30.21 in 10.0 mi SSW 9.2 mph - N/A   Clear
9:56 AM 69.1 °F 53.1 °F 57% 30.21 in 10.0 mi South 10.4 mph - N/A   Partly Cloudy
10:56 AM 72.0 °F 53.1 °F 51% 30.20 in 10.0 mi South 9.2 mph - N/A   Partly Cloudy
11:56 AM 73.0 °F 53.1 °F 49% 30.20 in 10.0 mi SSE 10.4 mph - N/A   Mostly Cloudy
12:56 PM 73.9 °F 52.0 °F 46% 30.19 in 10.0 mi SSE 13.8 mph - N/A   Clear
1:56 PM 75.9 °F 54.0 °F 46% 30.18 in 10.0 mi SSE 10.4 mph - N/A   Scattered Clouds
2:56 PM 78.1 °F 55.9 °F 46% 30.17 in 10.0 mi SSE 10.4 mph - N/A   Clear
3:56 PM 78.1 °F 55.9 °F 46% 30.16 in 10.0 mi South 9.2 mph - N/A   Clear
4:56 PM 78.1 °F 55.9 °F 46% 30.16 in 10.0 mi SSE 13.8 mph 20.7 mph N/A   Clear
5:56 PM 78.1 °F 55.9 °F 46% 30.15 in 10.0 mi South 15.0 mph - N/A   Scattered Clouds
6:56 PM 78.1 °F 57.9 °F 50% 30.13 in 10.0 mi South 12.7 mph - N/A   Clear
7:56 PM 75.0 °F 57.9 °F 55% 30.12 in 10.0 mi SE 9.2 mph - N/A   Clear
8:56 PM 72.0 °F 59.0 °F 64% 30.12 in 10.0 mi SE 8.1 mph - N/A   Clear
9:56 PM 69.1 °F 57.9 °F 68% 30.12 in 10.0 mi SE 9.2 mph - N/A   Clear
10:56 PM 66.0 °F 57.9 °F 75% 30.14 in 10.0 mi SE 8.1 mph - N/A   Clear
11:56 PM 66.0 °F 57.0 °F 73% 30.16 in 10.0 mi SE 10.4 mph - N/A   Clear